dimanche 11 mars 2018

 
LES SOMMETS DE FRANCHIMONT - THEUX
DISTANCE : 12.00 km
dimanche 11 mars 2018
 
Place dos NOM Catégorie Pl/cat temps temps/km Vitesse
1 487 TERRITO JOAKIM HOMME 1 00:39:40 03:18 18.15
2 443 BORN ADRIEN HOMME 2 00:41:38 03:28 17.29
3 376 PHILIPPE PATRICK HOMME 3 00:41:44 03:29 17.25
4 255 VERCAMMEN VINCENT HOMME 4 00:41:53 03:29 17.19
5 389 BOLLAND DEMPSEY HOMME 5 00:42:35 03:33 16.91
6 268 SCHOLZEN CHRISTOPHE HOMME 6 00:43:19 03:37 16.62
7 106 KARTHEUSER FRANCOIS HOMME 7 00:43:52 03:39 16.41
8 515 DEBROUX SEBASTIEN HOMME 8 00:44:05 03:40 16.33
9 495 CABO REGUERA FRANCISCO HOMME 9 00:44:17 03:41 16.26
10 161 SIMAR JEAN-MICHEL HOMME 10 00:44:50 03:44 16.06
11 125 MARTINEZ RAFAEL HOMME 11 00:45:22 03:47 15.87
12 119 LUXEN ANTOINE HOMME 12 00:45:55 03:50 15.68
13 468 DE FROIDMONT GUILLAUME HOMME 13 00:46:09 03:51 15.60
14 498 FELLER MAXIME HOMME 14 00:46:50 03:54 15.37
15 484 DRISSI TOUFIK HOMME 15 00:47:05 03:55 15.29
16 444 LEMARCHAL VINCENT HOMME 16 00:47:11 03:56 15.26
17 471 MATTART JULIEN HOMME 17 00:47:31 03:58 15.15
18 135 NATALIS ALEXANDRE HOMME 18 00:47:35 03:58 15.13
19 422 BUCHE JEAN-PASCAL HOMME 19 00:48:15 04:01 14.92
20 367 DEBIOLLE FRÉDÉRIC HOMME 20 00:48:29 04:02 14.85
21 72 FRIEDRICH SIMON HOMME 21 00:49:03 04:05 14.68
22 432 GOBATTO MARIO HOMME 22 00:49:07 04:06 14.66
23 549 TELLER RENAUD HOMME 23 00:49:12 04:06 14.63
24 401 PIRLET SIMON HOMME 24 00:49:29 04:07 14.55
25 454 JEWASINSKI MICHEL HOMME 25 00:49:59 04:10 14.40
26 38 CRETTELS FRANKLIN HOMME 26 00:50:04 04:10 14.38
27 384 DEMOULIN CHRISTOPHE HOMME 27 00:50:08 04:11 14.36
28 486 BUSTIN JONATHAN HOMME 28 00:50:09 04:11 14.36
29 33 COLIN JEROME HOMME 29 00:50:20 04:12 14.30
30 439 SIMONS JORA HOMME 30 00:50:23 04:12 14.29
31 521 JAMAR CEDRIC HOMME 31 00:50:32 04:13 14.25
32 265 DE LE VINGNE CLOVIS HOMME 32 00:50:38 04:13 14.22
33 414 PIRLET MARTIN HOMME 33 00:50:51 04:14 14.16
34 446 SIEBENBOUR MICHEL HOMME 34 00:50:54 04:15 14.15
35 409 HAVARD THOMAS HOMME 35 00:50:56 04:15 14.14
36 472 JACOB-PAQUAY ERIC HOMME 36 00:50:59 04:15 14.12
37 529 HENNEN THIEBAUT HOMME 37 00:51:05 04:15 14.09
38 507 WANSART NICOLAS HOMME 38 00:51:08 04:16 14.08
39 449 DEWEZ PIERRE HOMME 39 00:51:25 04:17 14.00
40 10 BASTIN ROBERT HOMME 40 00:51:46 04:19 13.91
41 519 DE RIDDER OLIVIER HOMME 41 00:52:06 04:21 13.82
42 463 DEGUELDRE JEAN-LOUIS HOMME 42 00:52:18 04:21 13.77
43 494 JACQUEMIN OLIVIER HOMME 43 00:52:27 04:22 13.73
44 499 DELLICOUR VINCENT HOMME 44 00:52:36 04:23 13.69
45 455 THEMLIN LAURENT HOMME 45 00:52:40 04:23 13.67
46 363 LODEZ JEAN-MICHEL HOMME 46 00:52:52 04:24 13.62
47 447 BROCHARD VINCENT HOMME 47 00:53:09 04:26 13.55
48 403 SEYS YVES HOMME 48 00:53:22 04:27 13.49
49 451 DELVAUX BENOIT HOMME 49 00:53:24 04:27 13.48
50 257 MOUREAUX PIERRE HOMME 50 00:53:27 04:27 13.47
51 497 LEGRAND JEAN-MARC HOMME 51 00:53:33 04:28 13.45
52 252 VANDEN BULCK CHRISTOPHE HOMME 52 00:54:16 04:31 13.27
53 372 MALMENDIER YVES HOMME 53 00:54:18 04:31 13.26
54 260 SOMJA VICTOR HOMME 54 00:54:32 04:33 13.20
55 508 BARON FERNANDO HOMME 55 00:54:34 04:33 13.19
56 297 PINCKAERS CHRISTOPHE HOMME 56 00:54:41 04:33 13.17
57 405 POTUMS MICHAEL HOMME 57 00:54:44 04:34 13.15
58 250 SCHYNS BRUNO HOMME 58 00:54:50 04:34 13.13
59 406 HENNEN OLIVIER HOMME 59 00:55:02 04:35 13.08
60 541 NYSSEN PIERRE HOMME 60 00:55:10 04:36 13.05
61 173 VITELLO CHRISTOPHE HOMME 61 00:55:14 04:36 13.04
62 4 AGUS PAOLO HOMME 62 00:55:17 04:36 13.02
63 462 MANSET GREGORY HOMME 63 00:55:20 04:37 13.01
64 127 MAYERES PATRICK HOMME 64 00:55:30 04:38 12.97
65 421 SERVAIS NATHALIE DAME 1 00:55:33 04:38 12.96
66 545 LECOQ FRANCOIS HOMME 65 00:55:37 04:38 12.95
67 464 COMPERE MICHEL HOMME 66 00:55:41 04:38 12.93
68 478 DESARCY JEAN-FRANÇOIS HOMME 67 00:55:46 04:39 12.91
69 536 TYSKENS LEO HOMME 68 00:55:55 04:40 12.88
70 712 DELSAUTE BRICE HOMME 69 00:56:09 04:41 12.82
71 514 LUX RALPH HOMME 70 00:56:16 04:41 12.80
72 544 LECOQ JEAN-PIERRE HOMME 71 00:56:27 04:42 12.75
73 275 REDING GERMAIN HOMME 72 00:56:32 04:43 12.74
74 560 VALEMBOIS QUENTIN HOMME 73 00:56:34 04:43 12.73
75 94 HODY LAURENT HOMME 74 00:56:38 04:43 12.71
76 58 DIEPART NICOLAS HOMME 75 00:56:48 04:44 12.68
77 276 BREUER CLAIRE DAME 2 00:56:52 04:44 12.66
78 47 DELANDSHEERE LIONEL HOMME 76 00:56:55 04:45 12.65
79 606 WIERTZ VINCENT HOMME 77 00:56:58 04:45 12.64
80 557 NEUPREZ GERALD HOMME 78 00:57:07 04:46 12.61
81 531 LEMAIRE MICHEL HOMME 79 00:57:10 04:46 12.59
82 452 PAROTTE ANDRÉ HOMME 80 00:57:15 04:46 12.58
83 404 PAROTTE FREDERIC HOMME 81 00:57:19 04:47 12.56
84 356 RENARD BELETTE HOMME 82 00:57:22 04:47 12.55
85 473 JAMINON JÉROME HOMME 83 00:57:27 04:47 12.53
86 721 NANON CHRISTIAN HOMME 84 00:57:39 04:48 12.49
87 40 DAELE MATTHIEU HOMME 85 00:57:43 04:49 12.47
88 398 LINCE SEBASTIEN HOMME 86 00:57:52 04:49 12.44
89 364 FRANSSEN JEAN-FRANÇOIS HOMME 87 00:57:54 04:50 12.44
90 280 PIERRET SÉBASTIEN HOMME 88 00:58:00 04:50 12.41
91 710 MORAY JULIEN HOMME 89 00:58:12 04:51 12.37
92 548 ROSSO MASSIMO HOMME 90 00:58:18 04:51 12.35
93 708 THISSEN FRED HOMME 91 00:58:36 04:53 12.29
94 369 NYSSEN CHRISTOPHE HOMME 92 00:58:41 04:53 12.27
95 419 HENRARD HERVÉ HOMME 93 00:58:43 04:54 12.26
96 513 PARMENTIER JOACHIM HOMME 94 00:58:45 04:54 12.26
97 492 GAUTHY STÉPHANIE DAME 3 00:58:48 04:54 12.24
98 601 PIRENNE MARC HOMME 95 00:58:50 04:54 12.24
99 362 BORN ALAIN HOMME 96 00:58:53 04:54 12.23
100 448 THISSEN MICHEL HOMME 97 00:58:57 04:55 12.21
101 75 GALAND VINCENT HOMME 98 00:59:04 04:55 12.19
102 438 COLIN JEAN-LOUIS HOMME 99 00:59:06 04:56 12.18
103 424 SIMAR JEAN-LUC HOMME 100 00:59:09 04:56 12.17
104 435 LHERMITTE MICHEL HOMME 101 00:59:10 04:56 12.17
105 270 RENSON JEAN-LUC HOMME 102 00:59:13 04:56 12.16
106 49 DELBRASSINE NIELS HOMME 103 00:59:15 04:56 12.15
107 457 PROUMEN ARNAUD HOMME 104 00:59:17 04:56 12.15
108 266 BEAUVE MARC HOMME 105 00:59:20 04:57 12.13
109 430 PETRON JONATHAN HOMME 106 00:59:23 04:57 12.12
110 263 MARTIN GILLES HOMME 107 00:59:29 04:57 12.10
111 512 WIRTLFELD FRANÇOIS HOMME 108 00:59:35 04:58 12.08
112 716 THEODORE JEAN HOMME 109 00:59:39 04:58 12.07
113 481 *DOSSARD 481 HOMME 110 01:00:00 05:00 12.00
114 360 AUBIER PHILIPPE HOMME 111 01:00:17 05:01 11.94
115 433 HOUGRAND JEAN-FRANÇOIS HOMME 112 01:00:24 05:02 11.92
116 503 WARNANT JEROME HOMME 113 01:00:42 05:04 11.86
117 453 ANDRIEN TONY HOMME 114 01:00:59 05:05 11.81
118 461 REGNIER DIDIER HOMME 115 01:01:07 05:06 11.78
119 709 BARBASON BENOIT HOMME 116 01:01:09 05:06 11.77
120 524 DETRY JEAN-PAUL HOMME 117 01:01:11 05:06 11.77
121 436 NANIOT PATRICK HOMME 118 01:01:13 05:06 11.76
122 543 SACRE DAMIEN HOMME 119 01:01:16 05:06 11.75
123 456 BRUWIER MATHIEU HOMME 120 01:01:20 05:07 11.74
124 427 BRUTINEL MURIEL DAME 4 01:01:23 05:07 11.73
125 554 CHARLIER ALEXANDRE HOMME 121 01:01:26 05:07 11.72
126 488 *DOSSARD 488 HOMME 122 01:01:29 05:07 11.71
127 18 BLODEN BENJAMIN HOMME 123 01:01:33 05:08 11.70
128 428 DUYSENS JEANNOT HOMME 124 01:01:36 05:08 11.69
129 489 *DOSSARD 489 HOMME 125 01:01:39 05:08 11.68
130 450 DEWEZ YVES HOMME 126 01:01:46 05:09 11.66
131 458 DE LUCA ANTHONY HOMME 127 01:01:53 05:09 11.63
132 381 LEFORT PIERRE HOMME 128 01:01:57 05:10 11.62
133 53 DENIS JEAN -CLAUDE HOMME 129 01:02:03 05:10 11.60
134 123 MARLET MALORIE DAME 5 01:02:13 05:11 11.57
135 445 DE WINTER MATTHIEU HOMME 130 01:02:19 05:12 11.55
136 613 VINCENT MARTIN HOMME 131 01:02:22 05:12 11.54
137 423 MINGUET LAURENCE DAME 6 01:02:38 05:13 11.50
138 273 BOULANGER NATHALIE DAME 7 01:02:42 05:14 11.48
139 272 BOULANGER EMMANUEL HOMME 132 01:02:46 05:14 11.47
140 415 MACQUET JEAN-MARC HOMME 133 01:02:53 05:14 11.45
141 283 THOMAS GUILLAUME HOMME 134 01:02:56 05:15 11.44
142 368 LUXEN OLIVIER HOMME 135 01:02:58 05:15 11.43
143 714 GOBLET CROLETTE HOMME 136 01:03:10 05:16 11.40
144 259 ZULIANI HUGO HOMME 137 01:03:32 05:18 11.33
145 483 JACOB LAURENT HOMME 138 01:03:44 05:19 11.30
146 711 BOUDRON BORIS HOMME 139 01:03:57 05:20 11.26
147 803 PIRLOT BERNARD HOMME 140 01:04:01 05:20 11.25
148 44 DECERF DAVID HOMME 141 01:04:06 05:21 11.23
149 366 RASSART MARC HOMME 142 01:04:18 05:22 11.20
150 532 FRANSOLET JONATHAN HOMME 143 01:04:24 05:22 11.18
151 16 BIELEN MICHEL HOMME 144 01:04:30 05:23 11.16
152 262 DROUGUET PHILIPPE HOMME 145 01:04:35 05:23 11.15
153 537 DOUBELS MYRIAM DAME 8 01:04:42 05:24 11.13
154 528 MARGUINIO DANIELLE DAME 9 01:04:46 05:24 11.12
155 706 GHARBI BRAHIM HOMME 146 01:04:56 05:25 11.09
156 110 LEMOINE CAMILLE DAME 10 01:05:06 05:26 11.06
157 289 BOULANGER VICTOR HOMME 147 01:05:10 05:26 11.05
158 269 PILS JOERI HOMME 148 01:05:15 05:26 11.03
159 608 BRASSEUR ROB HOMME 149 01:05:19 05:27 11.02
160 511 MERTENS ANNICK DAME 11 01:05:31 05:28 10.99
161 510 MAHUT VINCENT HOMME 150 01:05:34 05:28 10.98
162 261 MARTIN SANDRA DAME 12 01:05:48 05:29 10.94
163 271 VANIRENTERGHEM JIMMY HOMME 151 01:05:58 05:30 10.91
164 623 BONNET MARC HOMME 152 01:06:02 05:30 10.90
165 277 GAVRAY BRUNO HOMME 153 01:06:09 05:31 10.88
166 134 MOREAU LUC HOMME 154 01:06:14 05:31 10.87
167 535 TYSKENS TANGUY HOMME 155 01:06:24 05:32 10.84
168 496 BECO CELIA HOMME 156 01:06:29 05:32 10.83
169 485 REY LAETITIA DAME 13 01:06:33 05:33 10.82
170 298 ARELLANO CLAUDIA DAME 14 01:06:36 05:33 10.81
171 25 BONTEMS DANY HOMME 157 01:06:38 05:33 10.81
172 802 TIMMERMANN AURÉLIE DAME 15 01:06:41 05:33 10.80
173 274 ANTONELLO CHRISTOPHE HOMME 158 01:06:43 05:34 10.79
174 607 FONSNY SANDRINE DAME 16 01:06:57 05:35 10.75
175 609 BRASSEUR AURORE DAME 17 01:07:04 05:35 10.74
176 383 MOREAU SABRINA DAME 18 01:07:14 05:36 10.71
177 526 DERETTE ROMAIN HOMME 159 01:07:24 05:37 10.68
178 527 BONNET QUENTIN HOMME 160 01:07:25 05:37 10.68
179 725 DE CAZENOVE JEAN HOMME 161 01:07:28 05:37 10.67
180 558 HAWOTTE MARINE DAME 19 01:07:33 05:38 10.66
181 556 RIGOLLET FLORIAN HOMME 162 01:07:35 05:38 10.65
182 723 ROUX LOUIS HOMME 163 01:07:37 05:38 10.65
183 509 CASSOTH CLAIRE DAME 20 01:07:39 05:38 10.64
184 82 GILLET FREDERIQUE DAME 21 01:07:44 05:39 10.63
185 154 RAWAY CINDY DAME 22 01:07:47 05:39 10.62
186 440 BOUILLON BEATRICE DAME 23 01:07:53 05:39 10.61
187 605 DELEO LETIZIA DAME 24 01:08:01 05:40 10.59
188 407 PROPS SYLVAIN HOMME 164 01:08:41 05:43 10.48
189 397 DE NOBLET MARIE-LIESSE DAME 25 01:08:46 05:44 10.47
190 296 KARA AYHAN HOMME 165 01:08:48 05:44 10.47
191 295 SANCHEZ MORENO AUDREY DAME 26 01:08:51 05:44 10.46
192 441 BOUILLON DORIAN HOMME 166 01:08:56 05:45 10.44
193 547 BRALM CHRISTOPHE HOMME 167 01:09:00 05:45 10.43
194 417 NELHIEBEL GUYLA HOMME 168 01:09:15 05:46 10.40
195 52 DELVENNE CELINE DAME 27 01:09:38 05:48 10.34
196 540 LEWALLE VERONIQUE DAME 28 01:09:41 05:48 10.33
197 522 VENIER JONATHAN HOMME 169 01:09:45 05:49 10.32
198 470 DEGEE SABRINA DAME 29 01:09:53 05:49 10.30
199 804 ANCION JEAN-PASCAL HOMME 170 01:10:01 05:50 10.28
200 410 HEMMERLIN MICHAEL HOMME 171 01:10:25 05:52 10.22
201 465 DANTHINE YVES HOMME 172 01:10:32 05:53 10.21
202 282 ROSEN YOURI HOMME 173 01:10:47 05:54 10.17
203 288 BOULANGER BERNADETTE DAME 30 01:10:51 05:54 10.16
204 120 MARCHAL AMAURY HOMME 174 01:10:54 05:54 10.16
205 258 MASSART THIERRY HOMME 175 01:10:58 05:55 10.15
206 8 BASTIN ISABELLE DAME 31 01:11:01 05:55 10.14
207 253 THUNUS SERGE HOMME 176 01:11:04 05:55 10.13
208 437 WASSON ANDRÉ HOMME 177 01:11:20 05:57 10.09
209 99 JACOB MARIE DAME 32 01:11:28 05:57 10.07
210 491 BAIVIER MAXINE DAME 33 01:11:32 05:58 10.07
211 551 BEAUVE PAULINE DAME 34 01:11:36 05:58 10.06
212 550 BASTIN AMANDINE DAME 35 01:11:42 05:59 10.04
213 142 PATOUT ARNAUD HOMME 178 01:11:51 05:59 10.02
214 418 STOCK CÉCILE DAME 36 01:11:56 06:00 10.01
215 724 DEWALQUE THIERRY HOMME 179 01:11:58 06:00 10.00
216 118 LUCASSEN LAURENCE DAME 37 01:12:03 06:00 9.99
217 37 CREMER OLIVIER HOMME 180 01:12:05 06:00 9.99
218 500 CORNET CHRISTOPHE HOMME 181 01:12:09 06:01 9.98
219 254 PETERS FABRICE HOMME 182 01:12:13 06:01 9.97
220 707 LAMBERT HENRI HOMME 183 01:12:58 06:05 9.87
221 420 KALIN THIERRY HOMME 184 01:13:04 06:05 9.85
222 77 GAVRAY JULIEN HOMME 185 01:13:25 06:07 9.81
223 434 FUOCO CATENA DAME 38 01:13:36 06:08 9.78
224 534 DELFOSSE CHRISTEL DAME 39 01:14:00 06:10 9.73
225 281 MEUNIER ANNE-FRANÇOISE DAME 40 01:14:02 06:10 9.73
226 466 RADERMECKER MARIE-ANNE DAME 41 01:14:03 06:10 9.72
227 533 HENDRICK MAURICE HOMME 186 01:14:06 06:10 9.72
228 719 BLGNART ANOUK DAME 42 01:14:11 06:11 9.71
229 402 SCUROLE CATHERINE DAME 43 01:14:13 06:11 9.70
230 559 DONY STEVE HOMME 187 01:14:22 06:12 9.68
231 124 MARQUET SOPHIE DAME 44 01:14:28 06:12 9.67
232 138 OLIVY SOPHIE DAME 45 01:14:31 06:13 9.66
233 425 CLOSSET GERALDINE DAME 46 01:14:34 06:13 9.66
234 530 DELFORGE SOLANGE DAME 47 01:14:37 06:13 9.65
235 41 DARIMONT JOCELYNE DAME 48 01:14:38 06:13 9.65
236 720 DETIFFE CECILE DAME 49 01:14:52 06:14 9.62
237 546 BONNET VALERY DAME 50 01:14:54 06:14 9.61
238 13 BEAUVE MAURINE DAME 51 01:14:59 06:15 9.60
239 603 ERNOULD MARIE DAME 52 01:15:02 06:15 9.60
240 45 DEGIVE GAELLE DAME 53 01:15:03 06:15 9.59
241 431 VILVORDER MÉLANIE DAME 54 01:15:06 06:15 9.59
242 411 PIELA RUDY HOMME 188 01:15:09 06:16 9.58
243 294 GILLET VALÉRIE DAME 55 01:15:25 06:17 9.55
244 104 JANSSEN PASCAL HOMME 189 01:15:27 06:17 9.54
245 502 CORNET JEAN-MARC HOMME 190 01:15:29 06:17 9.54
246 469 DEFOSSÉ ISABELLE DAME 56 01:16:18 06:22 9.44
247 542 MELISEN CHRISTELLE DAME 57 01:16:21 06:22 9.43
248 474 BRAGARD CHANTAL DAME 58 01:16:27 06:22 9.42
249 98 MALO ISABELLE DAME 59 01:16:33 06:23 9.41
250 130 MICHA GREGORY HOMME 191 01:16:36 06:23 9.40
251 416 MARTIN LAURE-ANNE DAME 60 01:16:42 06:23 9.39
252 365 BLOEMERS KRISTEL DAME 61 01:17:17 06:26 9.32
253 264 HEINEN LISE DAME 62 01:17:28 06:27 9.29
254 413 HAUSMANN LYDIE DAME 63 01:17:31 06:28 9.29
255 251 MARTIN MOUT HOMME 192 01:17:36 06:28 9.28
256 299 LAHY ALYSSON DAME 64 01:17:41 06:28 9.27
257 249 DAHMEN VÉRONIQUE DAME 65 01:18:40 06:33 9.15
258 523 LODEZ NICOLAS HOMME 193 01:18:42 06:33 9.15
259 722 CROST SONIA DAME 66 01:19:40 06:38 9.04
260 705 ANTOINE BRIGITTE DAME 67 01:19:45 06:39 9.03
261 704 WILMOTTE MARC HOMME 194 01:19:51 06:39 9.02
262 429 SCHMETZ LOUIS HOMME 195 01:19:58 06:40 9.00
263 479 SCHMETZ GENEVIEVE DAME 68 01:20:01 06:40 9.00
264 713 PONCELET MELANIE DAME 69 01:20:09 06:41 8.98
265 361 BORN FRANÇOISE DAME 70 01:20:16 06:41 8.97
266 386 FEYEREISEN FRANÇOISE DAME 71 01:22:43 06:54 8.70
267 539 DELBEUCK AURORE DAME 72 01:24:07 07:01 8.56
268 538 CHEBIL RAMI HOMME 196 01:24:13 07:01 8.55
269 29 CASTELA DELPHINE DAME 73 01:24:14 07:01 8.55
270 408 MARQUET JEAN-YVES HOMME 197 01:24:21 07:02 8.54
271 300 SCHWAIGER PERRINE DAME 74 01:25:23 07:07 8.43
272 801 JAMAR LÉNA DAME 75 01:25:26 07:07 8.43
273 518 LANSCH LAURENCE DAME 76 01:25:52 07:09 8.39
274 517 ONNAU SERGE HOMME 198 01:25:55 07:10 8.38
275 516 THURION PHILIPPE HOMME 199 01:25:58 07:10 8.38
276 552 VANDER HEYDEN CLAIRE DAME 77 01:26:00 07:10 8.37
277 553 SCHWAIGER YVES HOMME 200 01:26:02 07:10 8.37
278 717 DESERT LUC HOMME 201 01:27:42 07:18 8.21
279 426 CLOSSET POL HOMME 202 01:28:31 07:23 8.13